| time (UTC) | temp F | wind direction | speed MPH | gust MPH | rain 1hr in | rain 24hr in | rain mn in | humidity % | barometer mb |
| 20260507140327 | 57 | 72 | 4.0 | 10.0 | 0.00 | 0.02 | 0.02 | 86 | 1006.9 |
| 20260507134840 | 57 | 30 | 2.0 | 10.0 | 0.00 | 0.02 | 0.02 | 88 | 1006.9 |
| 20260507133336 | 57 | 74 | 5.0 | 8.0 | 0.00 | 0.02 | 0.02 | 88 | 1007.2 |
| 20260507131829 | 57 | 89 | 2.0 | 9.0 | 0.00 | 0.02 | 0.02 | 89 | 1007.1 |
| 20260507130346 | 57 | 92 | 1.0 | 6.0 | 0.00 | 0.02 | 0.02 | 90 | 1006.4 |
| 20260507124837 | 57 | 69 | 4.0 | 7.0 | 0.00 | 0.02 | 0.02 | 91 | 1006.9 |
| 20260507123333 | 58 | 49 | 4.0 | 11.0 | 0.00 | 0.02 | 0.02 | 92 | 1006.4 |
| 20260507121829 | 58 | 65 | 2.0 | 3.0 | 0.00 | 0.02 | 0.02 | 92 | 1007.0 |
| 20260507120323 | 58 | 360 | 2.0 | 5.0 | 0.00 | 0.02 | 0.02 | 91 | 1006.8 |
| 20260507114822 | 58 | 48 | 2.0 | 4.0 | 0.00 | 0.02 | 0.02 | 91 | 1006.9 |
| 20260507113336 | 58 | 86 | 1.0 | 6.0 | 0.00 | 0.02 | 0.02 | 91 | 1006.6 |
| 20260507111853 | 59 | 42 | 2.0 | 5.0 | 0.00 | 0.02 | 0.02 | 91 | 1006.4 |
| 20260507110322 | 60 | 107 | 1.0 | 10.0 | 0.00 | 0.02 | 0.02 | 91 | 1006.0 |
| 20260507104839 | 61 | 76 | 4.0 | 7.0 | 0.00 | 0.02 | 0.02 | 90 | 1005.9 |
| 20260507103337 | 66 | 27 | 1.0 | 2.0 | 0.00 | 0.02 | 0.02 | 92 | 1005.4 |
| 20260507101827 | 66 | 353 | 0.0 | 2.0 | 0.00 | 0.02 | 0.02 | 92 | 1005.2 |
| 20260507100325 | 66 | 309 | 0.0 | 2.0 | 0.00 | 0.02 | 0.02 | 91 | 1004.9 |
| 20260507094839 | 66 | 341 | 0.0 | 3.0 | 0.00 | 0.02 | 0.02 | 91 | 1005.1 |
| 20260507093336 | 66 | 346 | 1.0 | 4.0 | 0.00 | 0.02 | 0.02 | 91 | 1004.9 |
| 20260507091830 | 66 | 157 | 0.0 | 2.0 | 0.00 | 0.02 | 0.02 | 91 | 1004.3 |
| 20260507090343 | 66 | 338 | 0.0 | 3.0 | 0.00 | 0.02 | 0.02 | 91 | 1004.2 |
| 20260507084843 | 66 | 77 | 0.0 | 2.0 | 0.00 | 0.02 | 0.02 | 91 | 1004.2 |
| 20260507083335 | 67 | 224 | 0.0 | 3.0 | 0.00 | 0.02 | 0.02 | 91 | 1004.7 |
| 20260507081831 | 67 | 184 | 1.0 | 3.0 | 0.00 | 0.02 | 0.02 | 91 | 1004.8 |
| 20260507080327 | 67 | 286 | 0.0 | 4.0 | 0.00 | 0.02 | 0.02 | 91 | 1004.8 |
| 20260507074824 | 67 | 219 | 0.0 | 4.0 | 0.00 | 0.02 | 0.02 | 91 | 1004.8 |
| 20260507073337 | 67 | 307 | 0.0 | 4.0 | 0.00 | 0.02 | 0.02 | 91 | 1004.8 |
| 20260507071835 | 67 | 205 | 0.0 | 0.0 | 0.00 | 0.02 | 0.02 | 90 | 1004.9 |
| 20260507070348 | 67 | 201 | 0.0 | 0.0 | 0.00 | 0.02 | 0.02 | 90 | 1005.0 |
| 20260507064841 | 67 | 243 | 0.0 | 0.0 | 0.01 | 0.02 | 0.02 | 90 | 1004.8 |
| 20260507063358 | 67 | 231 | 0.0 | 0.0 | 0.01 | 0.02 | 0.02 | 89 | 1004.7 |
| 20260507061830 | 67 | 233 | 0.0 | 0.0 | 0.01 | 0.02 | 0.02 | 89 | 1004.8 |
| 20260507060327 | 67 | 286 | 0.0 | 0.0 | 0.02 | 0.02 | 0.02 | 88 | 1005.7 |
| 20260507054842 | 68 | 152 | 0.0 | 0.0 | 0.01 | 0.01 | 0.01 | 87 | 1005.8 |
| 20260507053334 | 68 | 165 | 0.0 | 2.0 | 0.01 | 0.01 | 0.01 | 87 | 1006.0 |
| 20260507051852 | 69 | 44 | 0.0 | 0.0 | 0.01 | 0.01 | 0.01 | 86 | 1006.3 |
| 20260507050325 | 69 | 214 | 0.0 | 0.0 | 0.00 | 0.00 | 0.00 | 84 | 1006.2 |
| 20260507044845 | 70 | 214 | 0.0 | 0.0 | 0.00 | 0.00 | 0.00 | 82 | 1005.8 |
| 20260507043338 | 70 | 70 | 0.0 | 0.0 | 0.00 | 0.00 | 0.00 | 81 | 1005.8 |
| 20260507041834 | 70 | 33 | 0.0 | 0.0 | 0.00 | 0.00 | 0.00 | 80 | 1005.8 |
| 20260507040349 | 70 | 13 | 0.0 | 1.0 | 0.00 | 0.00 | 0.00 | 80 | 1005.8 |
| 20260507034840 | 70 | 25 | 0.0 | 1.0 | 0.00 | 0.00 | 0.00 | 80 | 1005.8 |
| 20260507033337 | 70 | 135 | 0.0 | 1.0 | 0.00 | 0.00 | 0.00 | 79 | 1005.7 |
| 20260507031829 | 70 | 136 | 0.0 | 2.0 | 0.00 | 0.00 | 0.00 | 78 | 1005.8 |
| 20260507030326 | 71 | 247 | 0.0 | 2.0 | 0.00 | 0.00 | 0.00 | 78 | 1005.8 |
| 20260507024820 | 71 | 198 | 0.0 | 0.0 | 0.00 | 0.00 | 0.00 | 77 | 1005.9 |
| 20260507023321 | 71 | 359 | 0.0 | 0.0 | 0.00 | 0.00 | 0.00 | 76 | 1006.1 |
| 20260507021838 | 72 | 158 | 0.0 | 0.0 | 0.00 | 0.00 | 0.00 | 76 | 1006.1 |
| 20260507020333 | 72 | 143 | 0.0 | 0.0 | 0.00 | 0.00 | 0.00 | 75 | 1005.9 |
| 20260507014830 | 72 | 314 | 0.0 | 2.0 | 0.00 | 0.00 | 0.00 | 75 | 1006.3 |
| 20260507013340 | 72 | 151 | 0.0 | 4.0 | 0.00 | 0.00 | 0.00 | 74 | 1006.0 |
| 20260507011837 | 72 | 174 | 0.0 | 2.0 | 0.00 | 0.00 | 0.00 | 73 | 1005.8 |
| 20260507010333 | 73 | 184 | 1.0 | 3.0 | 0.00 | 0.00 | 0.00 | 72 | 1006.2 |
| 20260507004851 | 73 | 312 | 0.0 | 1.0 | 0.00 | 0.00 | 0.00 | 71 | 1006.3 |
| 20260507003322 | 74 | 316 | 0.0 | 1.0 | 0.00 | 0.00 | 0.00 | 70 | 1006.1 |
| 20260507001835 | 74 | 316 | 0.0 | 2.0 | 0.00 | 0.00 | 0.00 | 69 | 1005.8 |
| 20260507000332 | 75 | 89 | 0.0 | 1.0 | 0.00 | 0.00 | 0.00 | 68 | 1005.8 |
| 20260506234825 | 75 | 94 | 0.0 | 2.0 | 0.00 | 0.00 | 0.00 | 67 | 1005.5 |
| 20260506233401 | 75 | 297 | 0.0 | 3.0 | 0.00 | 0.00 | 0.00 | 67 | 1005.4 |
| 20260506231834 | 76 | 4 | 1.0 | 2.0 | 0.00 | 0.00 | 0.00 | 66 | 1005.3 |
| 20260506230353 | 76 | 239 | 0.0 | 2.0 | 0.00 | 0.00 | 0.00 | 65 | 1005.3 |
| 20260506224826 | 76 | 89 | 0.0 | 2.0 | 0.00 | 0.00 | 0.00 | 65 | 1005.3 |
| 20260506223338 | 76 | 352 | 1.0 | 5.0 | 0.00 | 0.00 | 0.00 | 65 | 1005.4 |
| 20260506221833 | 76 | 119 | 1.0 | 3.0 | 0.00 | 0.00 | 0.00 | 64 | 1005.3 |
| 20260506220326 | 76 | 191 | 1.0 | 3.0 | 0.00 | 0.00 | 0.00 | 65 | 1005.3 |
| 20260506214826 | 76 | 108 | 0.0 | 3.0 | 0.00 | 0.00 | 0.00 | 64 | 1005.2 |
| 20260506213339 | 77 | 314 | 1.0 | 3.0 | 0.00 | 0.00 | 0.00 | 64 | 1005.3 |
| 20260506211837 | 76 | 65 | 1.0 | 3.0 | 0.00 | 0.00 | 0.00 | 64 | 1004.9 |
| 20260506210350 | 77 | 250 | 2.0 | 4.0 | 0.00 | 0.00 | 0.00 | 64 | 1004.8 |
| 20260506204903 | 76 | 166 | 2.0 | 4.0 | 0.00 | 0.00 | 0.00 | 65 | 1005.0 |
| 20260506203358 | 76 | 91 | 3.0 | 5.0 | 0.00 | 0.00 | 0.00 | 65 | 1004.9 |
| 20260506201831 | 76 | 222 | 1.0 | 5.0 | 0.00 | 0.00 | 0.00 | 69 | 1005.3 |
| 20260506200347 | 75 | 160 | 1.0 | 5.0 | 0.00 | 0.00 | 0.00 | 72 | 1005.5 |
| 20260506194823 | 74 | 169 | 1.0 | 4.0 | 0.00 | 0.00 | 0.00 | 76 | 1006.0 |
| 20260506193355 | 73 | 113 | 1.0 | 2.0 | 0.00 | 0.00 | 0.00 | 77 | 1006.4 |
| 20260506191831 | 75 | 82 | 0.0 | 3.0 | 0.00 | 0.00 | 0.00 | 76 | 1006.8 |
| 20260506190327 | 76 | 214 | 1.0 | 5.0 | 0.00 | 0.00 | 0.00 | 68 | 1006.9 |
| 20260506184823 | 76 | 45 | 3.0 | 5.0 | 0.00 | 0.00 | 0.00 | 69 | 1006.9 |
| 20260506183400 | 76 | 210 | 1.0 | 6.0 | 0.00 | 0.00 | 0.00 | 69 | 1006.9 |
| 20260506181833 | 76 | 231 | 2.0 | 6.0 | 0.00 | 0.00 | 0.00 | 70 | 1007.0 |
| 20260506180330 | 75 | 210 | 2.0 | 7.0 | 0.00 | 0.00 | 0.00 | 71 | 1007.1 |
| 20260506174822 | 74 | 257 | 3.0 | 7.0 | 0.00 | 0.00 | 0.00 | 71 | 1007.4 |
| 20260506173341 | 74 | 188 | 1.0 | 6.0 | 0.00 | 0.00 | 0.00 | 72 | 1007.4 |
| 20260506171834 | 73 | 229 | 0.0 | 6.0 | 0.00 | 0.00 | 0.00 | 73 | 1007.9 |
| 20260506170331 | 72 | 224 | 2.0 | 9.0 | 0.00 | 0.00 | 0.00 | 74 | 1008.4 |
| 20260506164847 | 72 | 163 | 2.0 | 6.0 | 0.00 | 0.00 | 0.00 | 74 | 1008.4 |
| 20260506163322 | 72 | 285 | 2.0 | 6.0 | 0.00 | 0.00 | 0.00 | 75 | 1008.4 |
| 20260506161855 | 72 | 255 | 1.0 | 6.0 | 0.00 | 0.00 | 0.00 | 74 | 1008.4 |
| 20260506160327 | 71 | 204 | 2.0 | 4.0 | 0.00 | 0.00 | 0.00 | 74 | 1008.8 |
| 20260506154824 | 71 | 231 | 2.0 | 11.0 | 0.00 | 0.00 | 0.00 | 73 | 1009.0 |
| 20260506153337 | 71 | 113 | 2.0 | 5.0 | 0.00 | 0.00 | 0.00 | 74 | 1009.3 |
| 20260506151836 | 71 | 238 | 2.0 | 6.0 | 0.00 | 0.00 | 0.00 | 74 | 1009.5 |
| 20260506150329 | 71 | 281 | 3.0 | 5.0 | 0.00 | 0.00 | 0.00 | 73 | 1009.5 |
| 20260506144827 | 71 | 253 | 2.0 | 7.0 | 0.00 | 0.00 | 0.00 | 74 | 1009.3 |
| 20260506143340 | 71 | 236 | 2.0 | 12.0 | 0.00 | 0.00 | 0.00 | 75 | 1009.0 |
| 20260506141833 | 71 | 226 | 3.0 | 9.0 | 0.00 | 0.00 | 0.00 | 74 | 1009.4 |